Walla Walla, WA

10:18 AM PDT on June 28, 2017 (GMT -0700)
Walla Walla Regional

Weather History for KALW - September, 2013

Change the Weather History Date:

Monday, September 16, 2013

  Actual Average Record
Temperature  
Mean Temperature 70 °F 65 °F  
Max Temperature 78 °F 78 °F 97 °F (1981)
Min Temperature 61 °F 53 °F 35 °F (1965)
Degree Days  
Heating Degree Days 0 3  
Month to date heating degree days 25  
Since 1 July heating degree days 38  
Cooling Degree Days 4 3  
Month to date cooling degree days 68  
Year to date cooling degree days 820  
Growing Degree Days 20 (Base 50)    
Moisture  
Dew Point 49 °F    
Average Humidity 51    
Maximum Humidity 67    
Minimum Humidity 34    
Precipitation  
Precipitation 0.00 in 0.03 in 0.33 in (1985)
Month to date precipitation 0.35  
Year to date precipitation 13.43  
Snow  
Snow 0.00 in 0.00 in 0.00 in (2002)
Month to date snowfall 0.0  
Year to date snowfall 6.0  
Since 1 July snowfall 0.0  
Snow Depth -    
Sea Level Pressure  
Sea Level Pressure 29.85 in    
Wind  
Wind Speed 14 mph (SSW)    
Max Wind Speed 25 mph    
Max Gust Speed 33 mph    
Visibility 10 miles    
Events      
T = Trace of Precipitation, MM = Missing Value Source: NWS Daily Summary

Daily Weather History Graph

Daily Weather History Graph

Search for Another Location

Airport or City:

Trip Planner

Search our weather history database for the weather conditions in past years. The results will help you decide how hot, cold, wet, or windy it might be!

Date:

Astronomy

Sep. 16, 2013 Rise Set
Actual Time 6:32 AM PDT 7:01 PM PDT
Civil Twilight 6:02 AM PDT 7:31 PM PDT
Nautical Twilight 5:27 AM PDT 8:07 PM PDT
Astronomical Twilight 4:50 AM PDT 8:44 PM PDT
Moon 5:19 PM PDT (9/16) 3:16 AM PDT (9/16)
Length of Visible Light 13h 28m
Length of Day
12h 28m
Waxing Gibbous, 91% of the Moon is Illuminated
Sep 16
Waxing Gibbous
Sep 19
Full
Sep 26
Last Quarter
Oct 4
New
Oct 11
First Quarter

Hourly Weather History & Observations

Time (PDT) Temp. Dew Point Humidity Pressure Visibility Wind Dir Wind Speed Gust Speed Precip Events Conditions
12:53 AM 66.0 °F 53.1 °F 63% 29.79 in 10.0 mi SSW 17.3 mph 25.3 mph N/A   Clear
1:53 AM 66.0 °F 52.0 °F 60% 29.80 in 10.0 mi SSW 15.0 mph - N/A   Clear
2:53 AM 64.9 °F 52.0 °F 63% 29.80 in 10.0 mi SSW 11.5 mph - N/A   Clear
3:53 AM 64.9 °F 51.1 °F 61% 29.82 in 10.0 mi SSW 15.0 mph 21.9 mph N/A   Clear
4:53 AM 63.0 °F 51.1 °F 65% 29.83 in 10.0 mi SSW 10.4 mph - N/A   Clear
5:53 AM 62.1 °F 51.1 °F 67% 29.84 in 10.0 mi SSW 10.4 mph - N/A   Clear
6:53 AM 63.0 °F 50.0 °F 63% 29.87 in 10.0 mi SSW 11.5 mph - N/A   Clear
7:53 AM 64.9 °F 51.1 °F 61% 29.88 in 10.0 mi SSW 17.3 mph 24.2 mph N/A   Clear
8:53 AM 66.9 °F 50.0 °F 54% 29.89 in 10.0 mi South 20.7 mph 26.5 mph N/A   Clear
9:53 AM 69.1 °F 50.0 °F 51% 29.90 in 10.0 mi SSW 25.3 mph 33.4 mph N/A   Clear
10:53 AM 72.0 °F 50.0 °F 46% 29.91 in 10.0 mi SW 19.6 mph - N/A   Clear
11:53 AM 72.0 °F 50.0 °F 46% 29.91 in 10.0 mi WSW 13.8 mph 19.6 mph N/A   Clear
12:53 PM 73.9 °F 50.0 °F 43% 29.91 in 10.0 mi WSW 12.7 mph - N/A   Clear
1:53 PM 75.0 °F 48.9 °F 40% 29.88 in 10.0 mi WSW 12.7 mph - N/A   Partly Cloudy
2:53 PM 75.9 °F 48.9 °F 38% 29.86 in 10.0 mi SW 17.3 mph 24.2 mph N/A   Clear
3:53 PM 77.0 °F 48.0 °F 36% 29.85 in 10.0 mi WSW 13.8 mph 24.2 mph N/A   Clear
4:53 PM 77.0 °F 46.9 °F 34% 29.84 in 10.0 mi SW 11.5 mph - N/A   Clear
5:53 PM 75.0 °F 46.0 °F 36% 29.84 in 10.0 mi SW 12.7 mph - N/A   Clear
6:53 PM 73.0 °F 45.0 °F 37% 29.83 in 10.0 mi SW 9.2 mph - N/A   Clear
7:53 PM 69.1 °F 46.9 °F 45% 29.84 in 10.0 mi SW 6.9 mph - N/A   Clear
8:53 PM 66.9 °F 46.0 °F 47% 29.84 in 10.0 mi SSE 6.9 mph - N/A   Clear
9:53 PM 66.0 °F 46.0 °F 48% 29.84 in 10.0 mi South 9.2 mph - N/A   Clear
10:53 PM 63.0 °F 46.9 °F 56% 29.85 in 10.0 mi SSW 9.2 mph - N/A   Clear
11:53 PM 61.0 °F 48.0 °F 62% 29.85 in 10.0 mi SSW 8.1 mph - N/A   Clear